Lid_Strength_Index
11 10 10 12 12 12 14 16 17 16 17 16 15 14 14 14 14 14 13 13 14 15 13 11 9 9 8 7 2 2 2 2 2 1 1 1 1 1 1 1 1 0 1 0
12 10 11 12 12 12 13 14 15 15 17 13 13 12 13 14 14 14 14 14 13 13 14 13 10 9 9 9 7 3 3 3 2 2 2 2 2 2 1 1 1 1 1 1
15 11 11 15 13 12 13 13 14 17 15 13 13 14 14 14 15 15 14 14 14 13 14 13 10 10 10 9 8 8 8 3 2 2 2 2 2 2 2 2 1 1 1 2
14 12 20 14 10 10 12 12 12 14 13 13 13 12 13 12 12 14 14 14 13 12 12 12 11 10 10 10 10 9 9 9 8 3 2 2 2 2 2 2 2 2 2 1
15 15 14 13 11 11 12 14 11 12 11 11 11 12 14 11 11 12 12 14 13 12 11 11 11 9 10 11 11 11 10 10 9 9 7 5 4 3 3 2 2 3 3 4
13 17 20 13 10 8 9 14 10 10 11 11 10 15 14 12 12 11 12 11 13 11 10 11 11 10 10 11 12 11 11 10 10 9 9 10 8 7 7 6 6 6 6 4
14 15 13 9 9 7 15 14 9 10 10 10 11 11 11 10 11 11 11 11 11 11 11 11 10 10 11 10 11 11 10 11 10 10 11 10 10 9 7 7 8 7 7 8
12 15 17 7 8 12 10 8 8 9 10 10 9 9 10 11 11 11 12 11 10 11 12 11 11 10 12 12 10 10 10 10 10 11 10 10 10 10 9 8 8 9 8 8
11 12 8 7 7 6 6 8 8 8 8 9 9 10 10 10 10 11 11 11 11 11 11 11 11 11 12 10 10 11 10 11 10 10 10 11 11 10 10 9 9 9 9 9
10 9 7 6 5 5 5 6 6 7 7 8 9 9 9 9 9 10 10 11 10 11 12 12 11 11 10 10 10 11 11 10 9 10 10 10 9 11 10 10 10 10 10 10
12 9 7 7 6 6 5 5 6 6 7 7 8 8 9 9 9 9 9 9 10 10 11 12 11 11 11 11 10 11 10 10 10 9 8 9 9 10 9 9 12 10 10 10
12 9 9 8 6 6 7 7 6 6 6 6 7 8 8 9 8 9 9 8 9 9 9 10 10 11 11 11 11 11 11 11 10 9 9 8 8 8 13 14 14 13 13 11
9 7 7 7 6 6 7 7 6 6 6 6 6 7 7 8 8 8 9 9 9 9 9 9 9 10 10 9 10 10 10 10 9 11 11 11 10 9 9 10 14 15 14 13
7 7 8 7 8 6 7 6 6 6 6 6 6 6 6 8 8 8 8 8 9 9 10 9 10 10 9 9 9 10 10 12 9 9 9 9 9 9 8 8 9 9 12 13
7 7 7 6 6 7 6 6 7 8 7 7 7 7 7 7 8 8 8 7 8 8 9 9 10 10 9 9 10 10 10 9 9 9 8 9 9 8 8 8 7 8 8 11
6 6 7 7 7 7 7 7 8 8 8 8 8 8 7 7 7 7 7 7 8 9 8 9 9 8 9 9 9 9 9 12 11 9 9 9 8 8 8 8 8 7 8 8
8 8 8 8 8 8 8 7 8 8 8 8 8 7 8 8 8 8 7 6 7 8 8 8 8 7 7 7 8 8 9 9 11 9 8 8 8 8 8 8 8 8 7 7
6 6 6 6 7 8 8 8 8 8 8 8 8 8 8 9 9 8 8 7 7 6 6 6 7 7 7 7 8 7 8 8 8 8 8 8 7 7 8 7 7 8 7 8
5 6 6 6 6 7 8 8 8 8 8 8 9 9 9 9 9 8 8 8 8 8 7 5 7 7 7 7 8 7 7 8 8 8 8 9 8 7 7 7 7 7 7 7
5 5 6 6 6 7 8 8 8 8 8 8 9 9 9 9 9 9 9 9 8 7 6 6 6 6 5 5 7 6 6 7 7 7 7 7 7 7 7 8 7 6 5 6
6 6 6 7 8 8 8 8 9 9 9 9 9 10 10 9 8 9 9 9 7 6 6 7 6 6 6 6 5 5 5 6 7 7 6 7 6 7 7 6 5 5 7 6
6 7 8 8 9 9 8 9 9 9 9 9 9 9 9 9 8 8 7 7 5 6 6 6 6 7 6 7 5 5 5 6 6 6 6 6 6 5 5 5 5 6 7 7
7 8 9 9 9 10 9 9 9 9 9 9 8 8 8 8 8 9 9 6 5 6 6 6 6 6 7 6 6 6 6 5 5 6 5 5 5 5 4 4 4 5 6 6
9 9 9 9 10 10 11 10 9 8 8 8 7 8 8 9 9 8 7 8 7 7 6 5 6 7 7 6 6 6 6 5 5 5 5 5 3 3 3 3 3 3 3 4
9 10 10 11 11 11 10 9 9 9 8 9 8 9 9 9 10 9 9 8 9 8 7 7 7 6 5 6 6 5 5 5 4 3 4 3 3 3 3 2 2 3 5 4
10 11 11 11 11 11 10 10 10 10 10 10 10 10 10 10 10 10 10 10 10 10 9 8 7 6 5 6 5 5 5 5 4 4 3 2 2 2 1 1 2 2 3 4
11 11 11 11 11 11 10 11 11 12 11 12 12 11 11 11 11 11 11 11 11 11 11 10 9 9 9 9 9 9 8 7 8 7 5 4 3 2 2 2 2 2 2 2